Location: Famechon
(49.7599°N, 2.0615°E)
Time: 14:10:55
(UTC+00:00)

COSMOS 2455 - Pass Details

Date: 03 February 2023
Orbit: 898 x 911 km, 67.1° (Epoch: 22 March)

Event Time Altitude Azimuth Distance (km) Brightness Sun altitude
Rises 18:39:39 0° 256° (WSW) 3,525 7.6 -17.9°
Reaches altitude 10° 18:42:31 10° 268° (W) 2,589 6.5 -18.4°
Maximum altitude 18:47:39 29° 326° (NNW) 1,625 4.5 -19.2°
Drops below altitude 10° 18:52:50 10° 25° (NNE) 2,605 5.0 -20.0°
Enters shadow 18:53:02 - 26° (NNE) 2,668 5.0 -20.1°
